Terminal Aerodrome Forecast
Issued by NWS Mobile, AL

Home | Current Version | Previous Version | Text Only | Print | Product List | Glossary On
Versions: 1 2 3 4 5 6 7 8 9 10 11 12 13 14 15 16 17 18 19 20 21 22 23 24 25
000
FTUS44 KMOB 281100 RRA
TAFPNS
TAF
KPNS 281155Z 2812/2912 00000KT P6SM FEW070 SCT250
     FM282100 18008KT P6SM VCTS SCT050CB SCT250
     FM290300 12002KT P6SM SCT250=

USA.gov is the U.S. government's official web portal to all federal, state and local government web resources and services.